Portada
METAR-TAF:

METAR-TAF

Aeroports :

Shōnai, Japó

latitud: 38-49N, longitud: 139-47E, altitud: 22 m

Observació

L'informe es va fer fa 1 hora i 14 minuts, a les 07:00 UTC
Vent 6 kt del Nord-Oest, variant entre Oest i Nord
Temperatura 9°C
Humitat 66%
Pressió 1021 hPa
Visibilitat 10 km o més
Escasses núvols a una alçada de 5000 ft
Cel ennuvolat

METAR: RJSY 300700Z 32006KT 280V360 9999 FEW050 BKN/// 09/03 Q1021

Hora: 17:14 (08:14 UTC)


TAF: manca

Observacions i pronòstics meteorològics de més de 4000 aeroports (METAR i TAF).

Les estacions disponibles són els punts grocs i vermells al mapa.

Posi el ratolí al punt desitjat per veure el nom de l'estació.

Feu clic per veure les observacions i els pronòstics meteorològics.

Per canviar el mapa: feu clic els botons verds amb una creu de color negre per apropar; al botó verd amb un guió per allunyar la imatge; o en les fletxes verdes per a mapes adjacents.


METAR-TAF: